Location: Unspecified
(0.0000°N, 0.0000°E)
Time: 20:39:59
(UTC+00:00)

DIAMOND RED - Visible Passes

Search period start: 04 June 2023 00:00
Search period end: 14 June 2023 00:00
Orbit: 440 x 453 km, 97.2° (Epoch: 04 June)

Date Brightness Start Highest point End Pass type
(mag) Time Alt. Az. Time Alt. Az. Time Alt. Az.
04 Jun ? 20:02:56 17° NNW 20:02:56 17° NNW 20:03:51 10° NNW visible
05 Jun ? 19:26:29 16° NNE 19:26:29 16° NNE 19:27:29 10° NNE visible
06 Jun ? 20:23:35 11° NW 20:23:35 11° NW 20:23:48 10° NW visible
07 Jun ? 19:47:04 21° N 19:47:04 21° N 19:48:18 10° N visible
08 Jun ? 19:10:31 12° NE 19:10:31 12° NE 19:10:54 10° NE visible
09 Jun ? 20:07:30 17° NNW 20:07:30 17° NNW 20:08:26 10° NNW visible
10 Jun ? 19:30:51 19° NNE 19:30:51 19° NNE 19:32:05 10° NNE visible
11 Jun ? 20:27:45 10° NW 20:27:45 10° NW 20:27:48 10° NW visible
12 Jun ? 19:51:02 22° N 19:51:02 22° N 19:52:22 10° N visible
13 Jun ? 19:14:18 13° NE 19:14:18 13° NE 19:15:03 10° NE visible
